Regional Weather Roundup
Issued by NWS

Home | Current Version | Previous Version | Graphics & Text | Print | Product List | Glossary On
Versions: 1 2 3 4 5 6 7 8 9 10 11 12 13 14 15 16 17 18 19 20 21 22 23 24 25 26 27
000
ASUS45 KBOU 260407
RWRCO

WEATHER ROUNDUP FOR COLORADO
NATIONAL WEATHER SERVICE DENVER/BOULDER CO
1000 PM MDT MON JUL 25 2016

NOTE: "FAIR" INDICATES FEW OR NO CLOUDS BELOW 12000 FEET WITH NO
SIGNIFICANT WEATHER AND/OR OBSTRUCTIONS TO VISIBILITY.

COZ001>005-013-030-031-260500-
...NORTHWEST COLORADO...

CITY           SKY/WX    TMP DP  RH WIND       PRES   REMARKS
CRAIG          FAIR      76  33  21 SE5       30.24R
HAYDEN         FAIR      81  30  16 N7G33     30.27S
MEEKER         FAIR      70  45  40 NW3       30.25R
MOUNT WERNER   NOT AVBL
STEAMBOAT SPGS FAIR      74  33  22 NW9G17    30.31R
WALDEN         FAIR      66  30  26 CALM      30.40R
$$

COZ006>008-011-260500-
...WEST CENTRAL VALLEYS...

CITY           SKY/WX    TMP DP  RH WIND       PRES   REMARKS
GRAND JUNCTION FAIR      85  40  20 N8        30.15R
MONTROSE       FAIR      76  45  33 S9        30.23R
EAGLE          FAIR      70  39  32 SE7       30.29R
RIFLE          FAIR      81  37  20 N6        30.17R
DELTA          FAIR      81  42  25 CALM      30.19R
NUCLA          FAIR     N/A N/A N/A NW6       30.28R
$$

COZ017>023-064>068-260500-
...SOUTHWEST COLORADO...

CITY           SKY/WX    TMP DP  RH WIND       PRES   REMARKS
DURANGO        FAIR      70  49  47 N6        30.31R
CORTEZ         FAIR      78  47  33 CALM      30.23R
PAGOSA SPRINGS FAIR      69  44  39 CALM      30.41R
TELLURIDE      FAIR      62  45  53 CALM      30.52R
WOLF CREEK PAS CLOUDY    50  41  71 SW10      30.77R
$$

COZ009-010-012-014-032>034-037-058>063-260500-
...CENTRAL COLORADO...

CITY           SKY/WX    TMP DP  RH WIND       PRES   REMARKS
ASPEN          FAIR      62  41  46 SW8       30.38R
BUENA VISTA    FAIR      70  32  25 CALM      30.40R
COPPER MTN     FAIR      59  23  25 NW3       30.75R
BERTHOUD PASS  FAIR      50  36  57 N8        30.79R
COTTONWOOD PAS FAIR      68  25  19 SW7G16    30.56R
GUNNISON       FAIR      64  45  48 CALM      30.42R
KREMMLING      FAIR      61  39  44 E3        30.35R
LEADVILLE      FAIR      56  31  38 CALM      30.55R
MONARCH PASS   CLOUDY    54  32  43 MISG      30.84R
SALIDA         FAIR      73  45  37 SE12G24   30.45R
SUNLIGHT       MOCLDY    63  34  34 CALM      30.66R
WILKERSON PASS FAIR      55  32  41 S5        30.71R
$$

COZ069>075-260500-
...SAN LUIS VALLEY/SANGRE DE CRISTO MOUNTAINS...

CITY           SKY/WX    TMP DP  RH WIND       PRES   REMARKS
ALAMOSA        FAIR      68  48  48 E14G22    30.38R
LA VETA PASS   FAIR      54  46  76 E5        30.63R
SAGUACHE       MOCLDY    72  37  28 NW10      30.40R
$$

COZ035-036-038>040-260500-
...NORTHERN COLORADO FRONT RANGE...

CITY           SKY/WX    TMP DP  RH WIND       PRES   REMARKS
DENVER INTL AP MOCLDY    77  43  29 S16       30.16R
DMNS CITY PARK   N/A     77  42  28 S9G15     30.17R
AURORA         MOCLDY    76  45  32 S32G38    30.18R
FRONT RANGE AP NOT AVBL
ERIE MUNI ARPT FAIR      74  47  38 S8        30.14R
BOULDER MUN AP FAIR      77  48  36 SW5       30.14R
CENTENNIAL     FAIR      76  43  30 S24G36    30.21R
BROOMFIELD     MOCLDY    75  48  38 S8        30.18R
LONGMONT       FAIR      78  50  37 W5        30.15R
$$

COZ041-046-047-076>085-087-088-260500-
...PIKES PEAK/PALMER DIVIDE AND SOUTHERN FOOTHILLS...

CITY           SKY/WX    TMP DP  RH WIND       PRES   REMARKS
COLO. SPRINGS  MOCLDY    65  54  67 S8        30.35R
A. F. ACADEMY  CLOUDY    66  52  61 S8        30.35R
SCHRIEVER AFB  NOT AVBL
ELLICOTT       FAIR     N/A N/A N/A W7        30.32R
FALCON         NOT AVBL
FORT CARSON    MOCLDY    66  55  66 SW8       30.31R
LIMON          NOT AVBL
MONUMENT HILL  MOCLDY    64  48  55 S20G38    30.36R
TRINIDAD       NOT AVBL
$$

COZ042>045-048>051-090-091-260500-
...NORTHEAST COLORADO...

CITY           SKY/WX    TMP DP  RH WIND       PRES   REMARKS
GREELEY ARPT   FAIR      72  52  49 E8        30.13R
AKRON          FAIR      71  61  70 SE14      30.17R
BURLINGTON     FAIR      73  63  70 S14       30.18R
WRAY           NOT AVBL
STERLING       FAIR      73  63  68 S13G20    30.11R
HOLYOKE        FAIR      70  63  78 W7        30.15R
FORT MORGAN    FAIR      72  59  64 SE10      30.15R
$$

COZ086-089-092>099-260500-
...SOUTHEAST COLORADO...

CITY           SKY/WX    TMP DP  RH WIND       PRES   REMARKS
PUEBLO         FAIR      69  58  67 W7        30.23R
LA JUNTA       RAIN      67  59  75 NW14      30.30R
LAMAR          FAIR      75  64  68 S6        30.16R
SPRINGFIELD      N/A     73  63  70 E5        30.21R
$$




USA.gov is the U.S. government's official web portal to all federal, state and local government web resources and services.